BIROS (41604 NORAD) Tracking and Keplerian Element Data

This shows tracking and keplerian element data for the satellite.

Feedback or suggestion? Click here.




ElementValue
Catalog41604
NameBIROS
Epoch Orbit13768
Epoch Day349.15190697
Epoch Year2018
RAAN49.0692
Inclination97.3917
Eccentricity0.0011336
Argument of Perigee322.726
Mean Anonmoly37.3188
Mean Motion15.21548477
Decay Rate3.4E-06
L11 41604U 16040F 18349.15190697 .00000340 00000-0 18145-4 0 9999
L22 41604 97.3917 49.0692 0011336 322.7260 37.3188 15.21548477137688

Live tracking and technical data element details for BIROS (NORAD 41604). BIROS can be tracked NOW for your location showing map with azimuth and elevation plus other details from your city location.

Track the satellite on the map from your city or location and see movement details for azimuth, elevation, latitude, longitude, range, height, and movement on the map or in text.







IsCatalogInMostPopularTable: catalog: 41604, numindb: 128
Update: records affected: 1



GetName: 41604 BIROS

Hit Count: updated at: Sat, 15 Dec 2018 13:20:36 GMT